星链-35959(STARLINK-35959)

导读

STARLINK-35959是由美国发射的星链卫星,于2025年12月31日升空,隶属于SpaceX打造的星链卫星互联网星座项目。星链项目旨在为全球范围提供高速低延迟的宽带互联网服务,该卫星加入后将进一步扩容星链网络,提升全球偏远区域及移动场景的网络覆盖能力,推动全球卫星互联网的普及进程。

基本信息
目录编号:
66827
目录名称:
STARLINK-35959
国际标识:
2025-280G
轨道中心:
EARTH
卫星名称:
星链-35959
卫星全名:
星链-35959(STARLINK-35959)
卫星状态:
在轨 (已飞行193 天)
发射日期:
2025-12-02 UTC
国别 :
美国 (US)
星等 :
--
轨道信息
数据来源 国际轨道数据 AOE轨道数据
星历时间 2026-06-13T03:32:10+0800
12小时前
查看轨道信息
2026-06-10T04:00:00+0800
3天前
查看轨道信息
半长轴 6950.17km 6950.174km
偏心率 0.0003232 0.0003443
轨道倾角 70.001° 70.001°
近地点辐角 266.724° 265.231°
升交点赤经 94.655° 102.170°
平近点角 93.355° 221.681°
近地点 569.786km 569.644km
远地点 574.28km 574.43km
周期 96.107分钟 96.107分钟
每日圈数 14.983377 14.983364
详细信息
固有亮度:
5
最大亮度:
2.5
卫星平台:
Starlink V1.0
覆盖范围:
全球
运营商:
太空探索技术公司
运营商所在国:
美国
制造商(研发单位):
太空探索技术公司
制造商所在国:
美国
使用方式:
暂无
卫星简介
Starlink 计划是 SpaceX 推出的全球卫星互联网项目,通过发射低轨道卫星,为全球尤其是偏远地区提供高速、低延迟的互联网服务。自 2019 年起,Starlink 已部署数千颗卫星,旨在缩小全球数字鸿沟,推动互联网普及。该项目还为军事、航空等行业提供通信支持,带来广泛经济效益。
2D轨道图
3D轨道图
轨道高度分析图
轨道倾角分析图
轨道综合分析图
查看轨道综合分析图